Tracking 19563 objects as of 20-Mar-2019
HD Live streaming from Space Station
objects crossing your sky now

FENGYUN 1C DEB

Track FENGYUN 1C DEB now!
10-day predictions


NORAD ID: 31714
Int'l Code: 1999-025CDM
Perigee: 784.5 km
Apogee: 864.7 km
Inclination: 99.0 °
Period: 101.2 minutes
Semi major axis: 7195 km
RCS: 0.0102 m2 (small)
Launch date: May 10, 1999
Source: People's Republic of China (PRC)
Launch site: Taiyaun Space Center, China (TSC)

Note: This is SATELLITE DEBRIS
aabbcc
Your satellite tracking list
Your tracking list is empty




NASA's NSSDC Master Catalog

Two Line Element Set (TLE):
1 31714U 99025CDM 19078.26321931 +.00001283 +00000-0 +58877-3 0  9995
2 31714 099.0379 185.1941 0055771 294.1507 093.6492 14.22339830607446
Source of the keplerian elements: AFSPC